Location: Waco, TX
(31.5480°N, 97.1670°W)
Time: 09:21:59
(UTC-05:00)

ISS - Pass Details

Date: 27 May 2017
Orbit: 402 x 409 km, 51.6° (Epoch: 25 May)

Event Time Altitude Azimuth Distance (km) Brightness Sun altitude
Rises 21:34:21 0° 269° (W) 2,324 0.9 -13.3°
Reaches altitude 10° 21:37:23 10° 299° (WNW) 1,466 0.4 -13.8°
Maximum altitude 21:38:55 13° 327° (NNW) 1,317 -0.1 -14.1°
Drops below altitude 10° 21:40:27 10° 355° (N) 1,467 -0.4 -14.3°
Sets 21:43:30 0° 26° (NNE) 2,329 0.2 -14.9°
